Location: Newark
(44.2886°N, 4.8431°E)
Time: 14:57:09
(UTC+00:00)

ZACube-1 - Pass Details

Date: 01 December 2020
Orbit: 584 x 665 km, 97.6° (Epoch: 14 January)

Event Time Altitude Azimuth Distance (km) Brightness Sun altitude
Rises 03:58:13 0° 28° (NNE) 2,828 ? -31.2°
Reaches altitude 10° 04:00:57 10° 48° (NE) 1,929 ? -30.7°
Maximum altitude 04:03:52 18° 92° (E) 1,468 ? -30.2°
Drops below altitude 10° 04:06:49 10° 137° (SE) 1,943 ? -29.7°
Sets 04:09:35 0° 156° (SSE) 2,855 ? -29.2°
